Regional Weather Roundup
Issued by NWS Green Bay, WI

Home | Current Version | Previous Version | Text Only | Print | Product List | Glossary On
Versions: 1 2 3 4 5 6 7 8 9 10 11 12 13 14 15 16 17 18 19 20 21 22 23 24 25 26 27 28 29 30 31 32 33 34 35 36 37 38 39 40 41 42 43 44 45 46 47 48 49 50
000
ASUS43 KGRB 070211
RWRGRB

NORTH-CENTRAL AND NORTHEAST WISCONSIN REGIONAL WEATHER ROUNDUP
NATIONAL WEATHER SERVICE GREEN BAY WI
900 PM CDT MON JUL 06 2015

WIZ005-009-010>012-018-019-070300-
NORTH CENTRAL WISCONSIN

CITY           SKY/WX    TMP DP  RH WIND       PRES   REMARKS
IRONWOOD         N/A     55  54  94 CALM      29.92R VSB 1/2
MANITOWISH WTR CLOUDY    55  55 100 NW6       29.94R FOG
ARBOR VITAE    CLEAR     58  56  92 N8        29.93S FOG
EAGLE RIVER    CLOUDY    57  55  94 N10       29.92R FOG
LAND O LAKES   CLOUDY    58  56  93 N9        29.94R FOG
RHINELANDER    CLOUDY    58  55  90 N8        29.93R FOG
PHILLIPS       MOCLDY    57  56  97 NW5       29.96R FOG
ANTIGO         CLOUDY    58  56  91 N12       29.90R FOG
TOMAHAWK       CLOUDY    58  55  89 NW6       29.94R FOG
MERRILL        CLOUDY    60  57  91 N8        29.93R FOG
$$

WIZ013-073-070300-
NORTHEAST WISCONSIN

CITY           SKY/WX    TMP DP  RH WIND       PRES   REMARKS
IRON MOUNTAIN  LGT RAIN  58  56  93 N10       29.86R FOG
MARINETTE      CLOUDY    59  55  88 N13G23    29.81R
OCONTO         CLOUDY    61  61 100 N13G21    29.82R
$$

WIZ017-030-035>037-045-070300-
CENTRAL WISCONSIN

CITY           SKY/WX    TMP DP  RH WIND       PRES   REMARKS
MEDFORD        CLOUDY    59  56  91 NW10      29.94R FOG
WAUSAU         CLOUDY    62  56  80 N8        29.90R HAZE
MOSINEE        CLOUDY    61  57  88 N10       29.91R FOG
MARSHFIELD     CLOUDY    62  54  74 N10       29.91R HAZE
WISC RAPIDS    CLOUDY    64  56  75 N14       29.90R
STEVENS POINT  CLOUDY    60  57  90 N8        29.89R
WAUPACA        CLOUDY    65  63  92 NW9       29.85R
SHAWANO        CLOUDY    65  60  85 N6        29.86R
CLINTONVILLE   CLOUDY    63  59  88 N7G20     29.85R
$$

WIZ038-039-048-051-070300-
FOX VALLEY

CITY           SKY/WX    TMP DP  RH WIND       PRES   REMARKS
NWS GREEN BAY  LGT RAIN  66  62  87 NW15G28   29.83R
APPLETON       HVY RAIN  72  68  88 NW12G20   29.82R FOG
OSHKOSH        CLOUDY    74  68  81 SW6       29.80R
FOND DU LAC    CLOUDY    75  72  90 W5        29.81R
$$

WIZ022-050-052-070300-
EAST CENTRAL WISCONSIN

CITY           SKY/WX    TMP DP  RH WIND       PRES   REMARKS
STURGEON BAY   CLOUDY    72  66  83 SW10      29.79S
MANITOWOC      CLOUDY    74  71  91 MISG      29.80R
SHEBOYGAN      CLOUDY    75  69  81 SW6       29.80R
$$

LMZ563-521-522-541>543-070300-
LAKESHORE

STATION/POSITION TIME  TEMP    WIND        PRES    VSBY  WAVE
                       AIR SEA DIR/SP/G                  HT/PER
                 (UTC) (F)     (DEG/KT/KT) (MB)    (MI)  (FT/S)
SHEBOYGAN LKSHOR 0200   72     190/  8/  8 1009.3R
KEWAUNEE LKSHORE 0100   61     200/  6/  8 1007.5F
ALGOMA MARINA    0141          210/  3/  4   N/A
NORTHPORT PIER   0200   60      10/ 13/ 17 1009.5R
N MID LAKE BUOY  0150   58 57   10/ 16/ 19 1008.5R         4/ 6
S GREEN BAY BUOY 0130   73 70  230/ 16/ 21 1009.3R
CHAMBERS ISLAND  0100   63      10/ 15/ 19 1007.8S
MENOMINEE LKSHOR 0100   70     180/  8/ 11 1007.9F
$$



USA.gov is the U.S. government's official web portal to all federal, state and local government web resources and services.